FW7308 Weather Reports


time (UTC)temp
C
wind
direction
speed
KPH
gust
KPH
rain 1hr
cm
rain 24hr
cm
rain mn
cm
humidity
%
barometer
mb
20260509222638 7 319 1.6 3.2 0.00 0.00 1.22 99 1012.3
20260509222137 7 14 3.2 4.8 0.00 0.00 1.22 99 1012.3
20260509221135 7 342 1.6 3.2 0.00 0.00 1.22 99 1012.3
20260509220636 7 308 3.2 4.8 0.00 0.00 1.22 99 1012.3
20260509220135 7 99 6.4 11.3 0.00 0.00 1.22 99 1012.3
20260509215737 7 344 1.6 3.2 0.00 0.00 1.22 99 1012.3
20260509215134 7 134 6.4 11.3 0.00 0.00 1.22 99 1012.3
20260509214633 7 79 4.8 8.0 0.00 0.00 1.22 99 1012.4
20260509214134 7 140 6.4 9.7 0.00 0.00 1.22 99 1012.6
20260509213635 7 138 6.4 9.7 0.00 0.00 1.22 99 1012.6
20260509213133 7 88 4.8 8.0 0.00 0.00 1.22 99 1012.6
20260509212632 7 323 3.2 4.8 0.00 0.00 1.22 99 1012.6
20260509212134 7 304 3.2 4.8 0.00 0.00 1.22 99 1012.6
20260509211632 7 66 3.2 4.8 0.00 0.00 1.22 99 1012.8
20260509211131 7 257 3.2 3.2 0.00 0.00 1.22 99 1012.6
20260509210632 7 31 3.2 4.8 0.00 0.00 1.22 99 1012.6
20260509210132 7 63 4.8 4.8 0.00 0.00 1.22 99 1013.0
20260509205631 7 158 6.4 9.7 0.00 0.00 1.22 99 1013.0
20260509205130 7 113 4.8 8.0 0.00 0.00 1.22 99 1013.0
20260509204629 7 354 3.2 3.2 0.00 0.00 1.22 99 1013.0
20260509204130 7 55 3.2 4.8 0.00 0.00 1.22 99 1013.0
20260509203630 7 50 4.8 8.0 0.00 0.00 1.22 99 1013.3
20260509203129 7 169 6.4 8.0 0.00 0.00 1.19 99 1013.1
20260509202628 7 134 6.4 9.7 0.00 0.00 1.19 99 1013.3
20260509202132 7 166 9.7 11.3 0.00 0.00 1.17 99 1013.0
20260509201629 7 91 4.8 4.8 0.00 0.00 1.17 99 1013.0
20260509201128 7 169 8.0 11.3 0.00 0.00 1.17 99 1013.0
20260509200627 6 150 8.0 11.3 0.00 0.00 1.17 99 1013.0
20260509200126 7 22 3.2 4.8 0.00 0.00 1.14 99 1013.0
20260509195727 6 195 6.4 11.3 0.00 0.00 1.14 99 1013.0
20260509195127 6 112 4.8 8.0 0.00 0.00 1.14 99 1013.0
20260509194125 6 178 6.4 9.7 0.00 0.00 1.12 99 1013.1
20260509193626 6 32 4.8 4.8 0.00 0.00 1.09 99 1013.3
20260509193125 6 146 4.8 8.0 0.00 0.00 1.09 99 1013.3
20260509192624 6 152 6.4 8.0 0.00 0.00 1.07 99 1013.3
20260509192225 6 51 3.2 4.8 0.00 0.00 1.07 99 1013.3
20260509191624 6 147 6.4 9.7 0.00 0.00 1.04 99 1013.3
20260509191123 6 52 3.2 4.8 0.00 0.00 1.02 99 1013.7
20260509190622 6 131 8.0 11.3 0.00 0.00 0.99 99 1013.7
20260509190123 6 177 8.0 11.3 0.00 0.00 0.97 99 1013.7
20260509185622 6 131 8.0 12.9 0.00 0.00 0.97 99 1013.7
20260509184724 6 151 8.0 9.7 0.00 0.00 0.91 99 1013.7
20260509184122 6 120 6.4 8.0 0.00 0.00 0.89 99 1013.7
20260509183621 6 134 6.4 11.3 0.00 0.00 0.86 99 1013.7
20260509182622 6 209 4.8 8.0 0.00 0.00 0.84 99 1014.0
20260509182121 6 301 3.2 4.8 0.00 0.00 0.81 99 1014.0
20260509181620 6 125 8.0 11.3 0.00 0.00 0.81 99 1014.0
20260509181121 6 151 9.7 11.3 0.00 0.00 0.79 99 1014.0
20260509180618 6 143 6.4 9.7 0.00 0.00 0.79 99 1014.0
20260509180119 6 136 4.8 8.0 0.00 0.00 0.76 99 1014.0
20260509175619 6 152 8.0 11.3 0.00 0.00 0.74 99 1014.0
20260509175118 6 142 6.4 9.7 0.00 0.00 0.74 99 1014.2
20260509174622 6 155 8.0 12.9 0.00 0.00 0.71 99 1014.0
20260509174219 6 124 8.0 11.3 0.00 0.00 0.71 99 1014.0
20260509173618 6 189 8.0 11.3 0.00 0.00 0.69 99 1014.2
20260509173117 6 164 6.4 9.7 0.00 0.00 0.66 99 1014.2
20260509172118 6 298 4.8 4.8 0.00 0.00 0.64 99 1014.0
20260509171617 6 147 6.4 9.7 0.00 0.00 0.61 99 1014.4
20260509171116 6 102 4.8 8.0 0.00 0.00 0.58 99 1014.4
20260509170645 6 140 6.4 9.7 0.00 0.00 0.56 99 1014.4
20260509170147 6 129 4.8 8.0 0.00 0.00 0.53 99 1014.4
20260509165645 6 154 8.0 11.3 0.00 0.00 0.51 99 1014.4
20260509165144 6 33 3.2 4.8 0.00 0.00 0.48 99 1014.4
20260509164643 6 92 4.8 4.8 0.00 0.00 0.48 99 1014.5
20260509164145 6 12 3.2 4.8 0.00 0.00 0.46 99 1014.7
20260509163644 5 316 3.2 3.2 0.00 0.00 0.43 99 1014.7
20260509163143 5 352 1.6 3.2 0.00 0.00 0.43 99 1014.7
20260509162642 5 122 6.4 11.3 0.00 0.00 0.41 99 1014.7
20260509162141 5 106 4.8 8.0 0.00 0.00 0.41 99 1014.7
20260509161643 6 354 1.6 3.2 0.00 0.00 0.41 99 1015.1
20260509161142 5 52 3.2 4.8 0.00 0.00 0.38 99 1015.1
20260509160641 5 288 4.8 4.8 0.00 0.00 0.38 99 1015.1
20260509160140 5 2 3.2 3.2 0.00 0.00 0.36 99 1015.1
20260509155641 5 338 1.6 1.6 0.00 0.00 0.36 99 1015.1
20260509155140 5 286 3.2 4.8 0.00 0.00 0.33 99 1015.1
20260509154640 5 305 3.2 4.8 0.00 0.00 0.33 99 1015.1
20260509154141 5 153 6.4 9.7 0.00 0.00 0.30 99 1015.4
20260509153640 5 322 3.2 4.8 0.00 0.00 0.30 99 1015.2
20260509153139 5 324 3.2 3.2 0.00 0.00 0.28 99 1015.4
20260509152740 5 111 4.8 8.0 0.00 0.00 0.28 99 1015.4
20260509152139 5 51 4.8 8.0 0.00 0.00 0.25 99 1015.4
20260509151638 5 39 4.8 4.8 0.00 0.00 0.25 99 1015.4
20260509151137 5 339 3.2 3.2 0.00 0.00 0.23 99 1015.8
20260509150636 5 14 3.2 3.2 0.00 0.00 0.23 99 1015.4
20260509145639 5 295 3.2 4.8 0.00 0.00 0.18 99 1015.4
20260509144637 5 25 4.8 8.0 0.00 0.00 0.15 99 1015.4
20260509144139 5 40 4.8 8.0 0.00 0.00 0.13 99 1015.4
20260509143636 5 5 3.2 3.2 0.00 0.00 0.13 99 1015.4
20260509143135 5 34 1.6 3.2 0.00 0.00 0.10 99 1015.1
20260509142135 5 21 3.2 3.2 0.00 0.00 0.10 99 1015.1
20260509141635 5 20 3.2 4.8 0.00 0.00 0.08 99 1015.2
20260509141135 5 336 1.6 1.6 0.00 0.00 0.08 99 1015.4
20260509140636 5 343 0.0 1.6 0.00 0.00 0.08 99 1015.1
20260509140134 5 21 3.2 3.2 0.00 0.00 0.08 99 1015.2
20260509135634 5 243 1.6 3.2 0.00 0.00 0.05 98 1015.1
20260509135135 5 133 4.8 8.0 0.00 0.00 0.05 97 1015.1
20260509134635 5 227 4.8 8.0 0.00 0.00 0.03 96 1015.1
20260509134131 5 348 1.6 3.2 0.00 0.00 0.03 95 1015.1
20260509133632 5 215 4.8 9.7 0.00 0.00 0.03 94 1015.1
20260509133134 5 342 3.2 4.8 0.00 0.00 0.00 94 1015.1
20260509132630 5 4 1.6 4.8 0.00 0.00 0.00 93 1015.1
20260509132130 5 343 1.6 3.2 0.00 0.00 0.00 93 1015.1
20260509131130 5 349 1.6 1.6 0.00 0.00 0.00 91 1015.1
20260509130128 5 18 3.2 3.2 0.00 0.00 0.00 89 1015.1
20260509125630 5 24 4.8 4.8 0.00 0.00 0.00 87 1015.1
20260509125129 5 193 4.8 8.0 0.00 0.00 0.00 86 1015.1
20260509124628 5 100 4.8 4.8 0.00 0.00 0.00 84 1015.1
20260509124127 5 131 6.4 8.0 0.00 0.00 0.00 83 1015.1
20260509123630 5 199 4.8 8.0 0.00 0.00 0.00 82 1015.1
20260509122229 5 41 4.8 4.8 0.00 0.00 0.00 82 1015.1
20260509121727 5 63 4.8 8.0 0.00 0.00 0.00 82 1015.4
20260509121126 5 169 6.4 9.7 0.00 0.00 0.00 82 1015.1
20260509120726 5 110 4.8 9.7 0.00 0.00 0.00 82 1015.4
20260509120126 5 22 4.8 4.8 0.00 0.00 0.00 82 1015.4
20260509115625 5 66 4.8 4.8 0.00 0.00 0.00 83 1015.4
20260509115124 5 357 3.2 3.2 0.00 0.00 0.00 82 1015.4
20260509114624 5 318 3.2 3.2 0.00 0.00 0.00 83 1015.4
20260509114125 5 17 3.2 3.2 0.00 0.00 0.00 83 1015.2
20260509113627 5 55 4.8 8.0 0.00 0.00 0.00 83 1015.1
20260509113228 5 28 4.8 4.8 0.00 0.00 0.00 82 1015.4
20260509112622 4 33 3.2 4.8 0.00 0.00 0.00 83 1015.2
20260509112222 4 360 3.2 3.2 0.00 0.00 0.00 85 1015.4
20260509111623 4 339 0.0 1.6 0.00 0.00 0.00 85 1015.4
20260509111122 4 0.0 0.0 0.00 0.00 0.00 84 1015.4
20260509110621 4 354 1.6 1.6 0.00 0.00 0.00 85 1015.4
20260509110120 3 354 1.6 3.2 0.00 0.00 0.00 85 1015.4
20260509105621 3 354 1.6 3.2 0.00 0.00 0.00 85 1015.4
20260509104620 -17 0.0 0.0 0.00 0.00 0.00 1015.1
20260509104122 3 17 3.2 3.2 0.00 0.00 0.00 86 1015.4
20260509102618 3 65 4.8 4.8 0.00 0.00 0.00 86 1015.1
20260509101617 3 19 3.2 3.2 0.00 0.00 0.00 86 1015.1
20260509101119 3 340 1.6 3.2 0.00 0.00 0.00 85 1015.1
20260509100617 3 351 1.6 1.6 0.00 0.00 0.00 84 1015.1
20260509100117 3 0.0 0.0 0.00 0.00 0.00 84 1015.1
20260509095616 4 353 1.6 3.2 0.00 0.00 0.00 83 1015.1
20260509095117 4 346 1.6 3.2 0.00 0.00 0.00 83 1015.2
20260509094617 3 273 3.2 4.8 0.00 0.00 0.00 83 1015.1
20260509094117 3 309 1.6 4.8 0.00 0.00 0.00 84 1015.1
20260509093647 3 74 4.8 4.8 0.00 0.00 0.00 85 1015.1
20260509093146 3 0 3.2 3.2 0.00 0.00 0.00 87 1015.1
20260509092645 2 350 1.6 1.6 0.00 0.00 0.00 88 1015.1
20260509092144 2 0.0 0.0 0.00 0.00 0.00 91 1015.1
20260509091643 1 334 1.6 1.6 0.00 0.00 0.00 93 1015.1
20260509091145 1 0.0 0.0 0.00 0.00 0.00 93 1015.1
20260509090647 1 0.0 0.0 0.00 0.00 0.00 93 1015.1
20260509090143 1 326 1.6 1.6 0.00 0.00 0.00 92 1014.9
20260509085645 1 326 1.6 1.6 0.00 0.00 0.00 92 1015.1
20260509085143 2 356 1.6 3.2 0.00 0.00 0.00 91 1014.7
20260509084646 1 0.0 0.0 0.00 0.00 0.00 93 1014.7
20260509084242 1 340 1.6 1.6 0.00 0.00 0.00 93 1014.9
20260509083644 1 336 0.0 1.6 0.00 0.00 0.00 94 1014.7
20260509083140 1 331 0.0 1.6 0.00 0.00 0.00 93 1014.4
20260509082643 -17 0.0 0.0 0.00 0.00 0.00 1014.4
20260509082140 -17 0.0 0.0 0.00 0.00 0.00 1014.4
20260509081639 1 326 1.6 1.6 0.00 0.00 0.00 92 1014.4
20260509081140 1 326 1.6 1.6 0.00 0.00 0.00 92 1014.4
20260509080639 1 342 3.2 3.2 0.00 0.00 0.00 91 1014.4
20260509080141 1 342 3.2 3.2 0.00 0.00 0.00 91 1014.4
20260509075638 1 323 3.2 3.2 0.00 0.00 0.00 91 1014.2
20260509074638 -17 0.0 0.0 0.00 0.00 0.00 1014.4
20260509074238 1 326 3.2 3.2 0.00 0.00 0.00 92 1014.4
20260509073638 1 326 3.2 3.2 0.00 0.00 0.00 92 1014.4
20260509073138 1 330 3.2 3.2 0.00 0.00 0.00 91 1014.4
20260509072637 1 330 3.2 3.2 0.00 0.00 0.00 91 1014.4
20260509071637 1 327 1.6 1.6 0.00 0.00 0.00 92 1014.4
20260509070635 1 325 3.2 3.2 0.00 0.00 0.00 92 1014.2
20260509070135 1 325 3.2 3.2 0.00 0.00 0.00 91 1014.4
20260509065635 1 333 1.6 1.6 0.00 0.00 0.00 90 1014.4
20260509065137 1 0.0 0.0 0.00 0.00 0.00 90 1014.4
20260509064635 1 334 3.2 3.2 0.00 0.00 0.00 91 1014.4
20260509064135 1 326 4.8 4.8 0.00 0.00 0.00 90 1014.4
20260509063634 1 326 4.8 4.8 0.00 0.00 0.00 90 1014.5
20260509063135 1 327 4.8 4.8 0.00 0.00 0.00 90 1014.5
20260509062633 1 330 4.8 4.8 0.00 0.00 0.00 90 1014.7
20260509061632 1 326 3.2 3.2 0.00 0.00 0.00 90 1014.7
20260509061133 1 333 3.2 3.2 0.00 0.00 0.00 90 1014.7
20260509060632 1 325 3.2 3.2 0.00 0.00 0.00 90 1014.7
20260509060131 1 326 3.2 3.2 0.00 0.00 0.00 90 1014.9
20260509055630 1 320 3.2 3.2 0.00 0.00 0.00 90 1014.9
20260509055130 2 325 3.2 3.2 0.00 0.00 0.00 89 1015.1
20260509054631 2 0.0 0.0 0.00 0.00 0.00 88 1015.1
20260509054131 2 0.0 0.0 0.00 0.00 0.00 88 1015.1
20260509053128 2 324 3.2 3.2 0.00 0.00 0.00 88 1015.1
20260509052628 2 333 3.2 3.2 0.00 0.00 0.00 88 1015.1
20260509052130 2 331 3.2 3.2 0.00 0.00 0.00 87 1014.9
20260509051628 2 335 3.2 3.2 0.00 0.00 0.00 88 1015.1
20260509051127 2 325 3.2 3.2 0.00 0.00 0.00 89 1014.7
20260509050628 2 325 3.2 3.2 0.00 0.00 0.00 88 1014.7
20260509050128 2 325 3.2 3.2 0.00 0.00 0.00 88 1014.7
20260509045627 2 326 3.2 3.2 0.00 0.00 0.00 88 1014.7
20260509045126 2 326 3.2 3.2 0.00 0.00 0.00 88 1014.7
20260509044625 2 325 3.2 3.2 0.00 0.00 0.00 87 1014.7
20260509044124 2 332 3.2 4.8 0.00 0.00 0.00 87 1014.7
20260509043627 2 331 1.6 1.6 0.00 0.00 0.00 87 1014.7
20260509043125 2 329 3.2 3.2 0.00 0.00 0.00 87 1014.7
20260509042125 3 330 1.6 3.2 0.00 0.00 0.00 86 1014.7
20260509041625 3 328 3.2 3.2 0.00 0.00 0.00 85 1014.4
20260509041225 3 335 3.2 3.2 0.00 0.00 0.00 84 1014.7
20260509040623 3 327 1.6 3.2 0.00 0.00 0.00 85 1014.7
20260509040124 3 331 1.6 1.6 0.00 0.00 0.00 85 1014.5
20260509035623 3 331 1.6 1.6 0.00 0.00 0.00 84 1014.7
20260509035124 3 330 1.6 1.6 0.00 0.00 0.00 83 1014.7
20260509034121 3 326 1.6 1.6 0.00 0.00 0.00 83 1014.7
20260509033623 3 326 1.6 1.6 0.00 0.00 0.00 83 1014.4
20260509033123 3 327 1.6 1.6 0.00 0.00 0.00 83 1014.4
20260509032621 3 328 1.6 1.6 0.00 0.00 0.00 83 1014.5
20260509031621 -17 0.0 0.0 0.00 0.00 0.00 1014.4
20260509031222 -17 0.0 0.0 0.00 0.00 0.00 1014.4
20260509030619 -17 0.0 0.0 0.00 0.00 0.00 1014.4
20260509030118 -17 0.0 0.0 0.00 0.00 0.00 1014.4
20260509024618 -17 0.0 0.0 0.00 0.00 0.00 1014.4
20260509024119 -17 0.0 0.0 0.00 0.00 0.00 1014.2
20260509023618 -17 0.0 0.0 0.00 0.00 0.00 1014.2
20260509023117 -17 0.0 0.0 0.00 0.00 0.00 1014.0
20260509022618 -17 0.0 0.0 0.00 0.00 0.00 1014.0
20260509022116 -17 0.0 0.0 0.00 0.00 0.00 1014.0
20260509021645 5 337 1.6 1.6 0.00 0.00 0.00 79 1014.0
20260509021146 5 337 1.6 1.6 0.00 0.00 0.00 79 1014.0
20260509020645 5 331 1.6 1.6 0.00 0.00 0.00 78 1014.0
20260509020145 5 331 1.6 1.6 0.00 0.00 0.00 78 1013.7
20260509015644 5 308 3.2 8.0 0.00 0.00 0.00 78 1014.0
20260509015145 5 331 1.6 1.6 0.00 0.00 0.00 78 1014.0
20260509014644 5 0.0 0.0 0.00 0.00 0.00 77 1014.0
20260509014143 -17 0.0 0.0 0.00 0.00 0.00 1013.7
20260509013644 6 318 3.2 3.2 0.00 0.00 0.00 70 1014.0
20260509013145 6 318 3.2 3.2 0.00 0.00 0.00 70 1013.7
20260509012142 6 327 1.6 1.6 0.00 0.00 0.00 72 1013.7
20260509011643 6 331 1.6 1.6 0.00 0.00 0.00 72 1013.3
20260509011243 -17 0.0 0.0 0.00 0.00 0.00 1013.3
20260509010642 6 357 4.8 4.8 0.00 0.00 0.00 71 1013.3
20260509010241 6 357 4.8 4.8 0.00 0.00 0.00 71 1013.3
20260509005640 7 330 3.2 4.8 0.00 0.00 0.00 67 1013.3
20260509005143 7 320 1.6 4.8 0.00 0.00 0.00 68 1013.3
20260509004640 7 302 4.8 4.8 0.00 0.00 0.00 68 1013.0
20260509004140 7 302 4.8 4.8 0.00 0.00 0.00 68 1013.0
20260509003639 7 333 1.6 3.2 0.00 0.00 0.00 68 1012.6
20260509003138 7 293 4.8 11.3 0.00 0.00 0.00 68 1012.6
20260509002639 7 340 1.6 3.2 0.00 0.00 0.00 68 1013.0
20260509002139 7 328 3.2 3.2 0.00 0.00 0.00 68 1012.6
20260509001638 7 314 3.2 3.2 0.00 0.00 0.00 69 1012.6
20260509001137 7 338 3.2 4.8 0.00 0.00 0.00 69 1012.6
20260509000738 7 330 0.0 1.6 0.00 0.00 0.00 70 1012.6
20260509000137 7 330 0.0 1.6 0.00 0.00 0.00 68 1012.6
20260508235636 7 316 1.6 3.2 0.00 0.00 0.00 69 1012.6
20260508235135 7 349 1.6 3.2 0.00 0.00 0.00 67 1012.6
20260508234636 7 0.0 0.0 0.00 0.00 0.00 67 1012.6
20260508234136 7 316 3.2 4.8 0.00 0.00 0.00 67 1012.3
20260508233636 7 340 1.6 3.2 0.00 0.00 0.00 66 1012.4
20260508233136 8 0.0 0.0 0.00 0.00 0.00 67 1012.6
20260508232633 8 349 3.2 4.8 0.00 0.00 0.00 66 1012.3
20260508232135 8 302 4.8 8.0 0.00 0.00 0.00 65 1012.3
20260508231634 8 340 0.0 1.6 0.00 0.00 0.00 66 1012.3
20260508230635 8 349 1.6 3.2 0.00 0.00 0.00 66 1012.1
20260508225632 8 302 6.4 11.3 0.00 0.00 0.00 65 1012.3
20260508225136 8 322 6.4 8.0 0.00 0.00 0.00 65 1011.9
20260508224633 8 8 8.0 9.7 0.00 0.00 0.00 64 1011.9
20260508224134 8 326 4.8 8.0 0.00 0.00 0.00 64 1011.9
20260508223631 8 352 3.2 4.8 0.00 0.00 0.00 63 1011.9
20260508223131 8 331 4.8 8.0 0.00 0.00 0.00 64 1011.9